This demonstration page uses our WeatherBlox Daily Observations layout. Learn more.

Left ArrowRight Arrow

34.16533, -84.80231

Hourly Observations for October 22, 2015

Temp ( °F °C ) Dew Point ( °F °C ) Humidity (%) Winds ( mph kmh ) Pressure ( in mb ) Visibility ( mi km ) Precip ( " mm )
12:53 am 00:53 Clear 47 8.3 47 8.3 100 100 Calm 30.30 1026 7 11 0.00 0.00
1:53 am 01:53 Clear 46 7.8 46 7.8 100 100 Calm 30.29 1026 9 14 0.00 0.00
2:53 am 02:53 Clear 46 7.8 46 7.8 100 100 Calm 30.29 1026 8 13 0.00 0.00
3:53 am 03:53 Clear 46 7.8 46 7.8 100 100 Calm 30.29 1026 10 16 0.00 0.00
4:53 am 04:53 Clear 46 7.8 45 7.2 96 96 Calm 30.28 1025 8 13 0.00 0.00
5:53 am 05:53 Clear 46 7.8 46 7.8 100 100 Calm 30.28 1025 8 13 0.00 0.00
6:53 am 06:53 Clear 46 7.8 45 7.2 96 96 Calm 30.30 1026 9 14 0.00 0.00
7:53 am 07:53 Sunny 45 7.2 45 7.2 100 100 Calm 30.33 1027 8 13 0.00 0.00
8:53 am 08:53 Sunny 49 9.4 48 8.9 97 97 Calm 30.34 1027 10 16 0.00 0.00
9:53 am 09:53 Sunny 55 12.8 51 10.6 87 87 Calm 30.35 1028 10 16 0.00 0.00
10:53 am 10:53 Sunny 62 16.7 52 11.1 70 70 Calm 30.35 1028 10 16 0.00 0.00
11:53 am 11:53 Sunny 68 20 54 12.2 61 61 ENE 3 6 30.34 1027 10 16 0.00 0.00
12:53 pm 12:53 Sunny 74 23.3 57 13.9 56 56 Calm 30.32 1027 10 16 0.00 0.00
1:53 pm 13:53 Sunny 73 22.8 55 12.8 53 53 Calm 30.29 1026 10 16 0.00 0.00
2:53 pm 14:53 Sunny 72 22.2 56 13.3 57 57 Calm 30.26 1025 10 16 0.00 0.00
3:53 pm 15:53 Sunny 76 24.4 56 13.3 50 50 ENE 5 7 30.23 1024 10 16 0.00 0.00
4:53 pm 16:53 Sunny 76 24.4 55 12.8 48 48 Calm 30.22 1024 10 16 0.00 0.00
5:53 pm 17:53 Sunny 73 22.8 56 13.3 55 55 Calm 30.22 1023 10 16 0.00 0.00
6:53 pm 18:53 Sunny 62 16.7 60 15.6 93 93 Calm 30.22 1023 10 16 0.00 0.00
7:53 pm 19:53 Clear 59 15 58 14.4 96 96 Calm 30.23 1024 10 16 0.00 0.00
8:53 pm 20:53 Clear 56 13.3 56 13.3 100 100 Calm 30.24 1024 10 16 0.00 0.00
9:53 pm 21:53 Clear 54 12.2 54 12.2 100 100 Calm 30.24 1024 10 16 0.00 0.00
10:53 pm 22:53 Clear 54 12.2 54 12.2 100 100 Calm 30.23 1024 8 13 0.00 0.00
11:53 pm 23:53 Clear 54 12.2 54 12.2 100 100 Calm 30.23 1024 9 14 0.00 0.00

Powered by AerisWeather